This demonstration page uses our WeatherBlox Daily Observations layout. Learn more.

Left ArrowRight Arrow

38.88101, -77.10428

Hourly Observations for May 18, 2016

Temp ( °F °C ) Dew Point ( °F °C ) Humidity (%) Winds ( mph kmh ) Pressure ( in mb ) Visibility ( mi km ) Precip ( " mm )
12:05 am 00:05 Cloudy 55 12.8 51 10.6 87 87 N N/A 30.15 1021 9 14 N/A
12:20 am 00:20 Cloudy 55 13 52 11 88 88 N N/A 30.15 1021 9 14 N/A
12:52 am 00:52 Cloudy 56 13.3 52 11.1 87 87 N N/A 30.15 1021 8 13 N/A
1:52 am 01:52 Cloudy with Mist and Fog 55 12.8 52 11.1 90 90 N N/A 30.14 1021 6 10 N/A
2:50 am 02:50 Cloudy with Mist and Fog 55 13 52 11 88 88 N N/A 30.12 1020 6 10 N/A
2:52 am 02:52 Cloudy with Mist and Fog 55 12.8 52 11.1 90 90 N N/A 30.12 1020 6 10 N/A
3:06 am 03:06 Cloudy with Mist and Fog 55 12.8 52 11.1 90 90 N N/A 30.12 1020 6 10 N/A
3:45 am 03:45 Cloudy 55 12.8 52 11.1 90 90 N N/A 30.12 1020 7 11 N/A
3:52 am 03:52 Cloudy 55 12.8 52 11.1 90 90 N N/A 30.12 1020 10 16 N/A
4:52 am 04:52 Cloudy with Mist and Fog 55 12.8 52 11.1 90 90 E 6 9 30.10 1019 6 10 N/A
5:52 am 05:52 Cloudy with Mist and Fog 55 12.8 52 11.1 90 90 NNE 6 9 30.12 1020 4 6 N/A
6:52 am 06:52 Cloudy with Mist and Fog 56 13.3 52 11.1 87 87 NE 8 13 30.12 1020 5 8 N/A
7:52 am 07:52 Cloudy 56 13.3 51 10.6 84 84 NNE 5 7 30.15 1021 7 11 N/A
8:52 am 08:52 Cloudy 56 13.3 50 10 81 81 NE 9 15 30.15 1021 10 16 N/A
9:52 am 09:52 Cloudy 57 13.9 50 10 78 78 NE 10 17 30.14 1021 10 16 N/A
10:52 am 10:52 Cloudy 59 15 49 9.4 69 69 NE 13 20 30.13 1020 10 16 N/A
11:52 am 11:52 Cloudy 60 15.6 49 9.4 67 67 NE 8 13 30.14 1021 10 16 N/A
12:52 pm 12:52 Cloudy 62 16.7 48 8.9 60 60 NE 8 13 30.12 1020 10 16 N/A
1:52 pm 13:52 Cloudy 64 17.8 47 8.3 54 54 VRB 3 6 30.12 1020 10 16 N/A
2:52 pm 14:52 Cloudy 65 18.3 48 8.9 54 54 NE 8 13 30.10 1019 10 16 N/A
3:52 pm 15:52 Cloudy 66 18.9 49 9.4 54 54 VRB 6 9 30.07 1018 10 16 N/A
4:52 pm 16:52 Cloudy 64 17.8 49 9.4 58 58 E 5 7 30.06 1018 10 16 N/A
5:52 pm 17:52 Cloudy 64 17.8 49 9.4 58 58 E 6 9 30.07 1018 10 16 N/A
6:52 pm 18:52 Cloudy 64 17.8 51 10.6 63 63 ENE 7 11 30.06 1018 10 16 N/A
7:52 pm 19:52 Cloudy 63 17.2 50 10 63 63 NE 7 11 30.06 1018 10 16 N/A
8:52 pm 20:52 Cloudy with Light Rain 63 17.2 49 9.4 60 60 NE 3 6 30.08 1019 10 16 N/A
9:52 pm 21:52 Cloudy 60 15.6 46 7.8 60 60 N 10 17 30.10 1019 10 16 N/A
10:52 pm 22:52 Cloudy 59 15 46 7.8 62 62 NNE 12 19 30.10 1019 10 16 N/A
11:52 pm 23:52 Cloudy 59 15 47 8.3 64 64 N 9 15 30.10 1019 10 16 N/A

Powered by AerisWeather